Weather observations for the past three days for
Lambertville, Toledo Suburban Airport
Imperial (Metric)
Date Time (edt) Wind (mph) Vis. (mi.) Weather Sky Cond. Temperature (ºF) Relative Humidity Wind Chill (°F) Heat Index (°F) Pressure Precipitation (in)
Air Dwpt 6 hour altimeter (in) sea level (mb) 1 hr 3 hr 6 hr
Max. Min.
25 06:15 S 9 10.00 Fair CLR 70.2 55 59% 29.83 0.0
25 05:55 S 6 10.00 Partly Cloudy SCT080 69.8 55.4 60% 29.85 0.0
25 05:35 S 6 10.00 Mostly Cloudy BKN080 69.8 55.6 61% 29.87 0.0
25 05:15 S 5 10.00 Mostly Cloudy BKN080 BKN110 69.3 55.8 62% 29.89 0.0
25 04:55 S 3 10.00 Partly Cloudy SCT110 69.1 55.6 62% 29.89 0.0
25 04:35 S 5 10.00 Fair CLR 68.9 55.8 63% 29.87 0.0
25 03:55 S 3 10.00 Fair CLR 68.9 56.3 64% 29.86 0.0
25 03:35 SE 5 10.00 Fair CLR 68.4 56.5 66% 29.85 0.0
25 03:15 SE 5 10.00 Fair CLR 68 56.5 67% 29.87 0.0
25 02:55 SE 5 10.00 Fair CLR 68.2 56.3 66% 29.88 0.0
25 02:35 S 5 10.00 Fair CLR 67.1 56.7 69% 29.91 0.0
25 02:15 S 3 10.00 Fair CLR 67.1 56.3 68% 29.93 0.0
25 01:55 Calm 10.00 Fair CLR 68 55.8 78.6 67.1 65% 29.94 0.0
25 01:35 S 3 10.00 Fair CLR 68.5 55.6 63% 29.94 0.0
25 01:15 S 3 10.00 Fair CLR 70.2 54.7 58% 29.95 0.0
25 00:55 S 3 10.00 Fair CLR 69.8 54.9 59% 29.94 0.0
25 00:35 S 3 10.00 Fair CLR 67.5 55.9 67% 29.95 0.0
25 00:15 Calm 10.00 Fair CLR 68.7 55.2 62% 29.95 0.0
24 23:55 Calm 10.00 Fair CLR 69.3 55.4 62% 29.95 0.0
24 23:35 SE 3 10.00 Fair CLR 71.2 54 55% 29.95 0.0
24 23:15 SE 3 10.00 Fair CLR 68.9 56.5 65% 29.93 0.0
24 22:55 Calm 10.00 Fair CLR 69.3 56.7 64% 29.93 0.0
24 22:35 Calm 10.00 Fair CLR 70.9 55.9 59% 29.94 0.0
24 22:15 SE 3 10.00 Fair CLR 70.7 56.1 60% 29.94 0.0
24 21:55 Calm 10.00 Fair CLR 72.7 55.6 55% 29.94 0.0
24 21:35 SE 3 10.00 Fair CLR 73.4 55.6 54% 29.93 0.0
24 21:15 Calm 10.00 Fair CLR 74.1 55.9 53% 29.94 0.0
24 20:55 Calm 10.00 Fair CLR 75.6 55.6 50% 78 29.94 0.0
24 20:35 E 3 10.00 Fair CLR 76.5 55.6 49% 78 29.94 0.0
24 20:15 E 3 10.00 Fair CLR 78.1 54.7 45% 79 29.94 0.0
24 19:55 E 5 10.00 Fair CLR 78.8 55 81.7 78.4 44% 79 29.94 0.0
24 19:35 E 6 10.00 Fair CLR 78.8 55.2 44% 79 29.94 0.0
24 19:15 E 6 10.00 Fair CLR 79.7 55 43% 80 29.94 0.0
24 18:55 E 5 10.00 Fair CLR 80.1 54.9 42% 80 29.94 0.0
24 18:35 E 6 10.00 Fair CLR 80.1 54.9 42% 80 29.95 0.0
24 18:15 E 6 10.00 Fair CLR 80.4 54.3 41% 80 29.95 0.0
24 17:55 Calm 10.00 Fair CLR 80.6 55 41% 80 29.95 0.0
24 17:35 E 5 10.00 Fair CLR 80.6 54 40% 80 29.96 0.0
24 17:15 SE 5 10.00 Fair CLR 80.8 54.1 40% 80 29.96 0.0
24 16:55 Calm 10.00 Fair CLR 81 53.2 38% 80 29.97 0.0
24 16:35 Calm 10.00 Fair CLR 80.8 52.9 38% 80 29.97 0.0
24 16:15 E 8 10.00 Fair CLR 80.2 53.2 39% 80 29.97 0.0
24 15:55 NE 6 10.00 Fair CLR 80.8 50.5 35% 80 29.97 0.0
24 15:35 Calm 10.00 Fair CLR 81.1 50.7 35% 80 29.97 0.0
24 15:15 Calm 10.00 Fair CLR 80.6 48.6 33% 80 29.98 0.0
24 14:55 Calm 10.00 Fair CLR 80.1 49.8 35% 80 29.98 0.0
24 14:35 NE 5 10.00 Fair CLR 80.2 48.6 33% 80 29.99 0.0
24 14:15 S 3 10.00 Fair CLR 80.2 52.9 39% 80 29.99 0.0
24 13:55 E 5 10.00 Fair CLR 78.8 54 79 67.3 42% 79 29.99 0.0
24 13:35 Calm 10.00 Fair CLR 78.3 53.1 42% 79 29.99 0.0
24 13:15 E 3 10.00 Fair CLR 78.1 54.1 44% 79 29.99 0.0
24 12:55 NE 5 10.00 Partly Cloudy SCT041 78.1 55.2 45% 79 29.99 0.0
24 12:35 Calm 10.00 Mostly Cloudy SCT041 BKN048 76.8 55.2 47% 78 29.98 0.0
24 12:15 SE 3 10.00 Mostly Cloudy SCT037 BKN046 BKN050 76.3 55.8 49% 78 29.98 0.0
24 11:55 E 6 10.00 Mostly Cloudy SCT035 BKN044 76.8 57.4 51% 79 29.99 0.0
24 11:35 SE 3 10.00 Partly Cloudy SCT031 SCT044 75 58.6 57% 77 29.98 0.0
24 11:15 E 3 10.00 Mostly Cloudy BKN029 BKN043 BKN049 74.8 60.1 60% 29.99 0.0
24 10:55 Calm 10.00 Mostly Cloudy SCT029 SCT041 BKN047 74.3 60.4 62% 29.98 0.0
24 10:35 Calm 10.00 Partly Cloudy SCT026 SCT032 SCT039 73.4 60.1 63% 29.98 0.0
24 10:15 Calm 10.00 Partly Cloudy SCT026 SCT032 73.2 61.3 66% 29.98 0.0
24 09:55 NE 3 10.00 Fair CLR 73.2 60.1 64% 29.97 0.0
24 09:35 Calm 10.00 Fair CLR 72.1 60.8 68% 29.97 0.0
24 09:15 NW 5 10.00 Fair CLR 71.6 61.2 70% 29.95 0.0
24 08:55 NW 3 10.00 Fair CLR 70.5 61.2 72% 29.95 0.0
24 08:35 NW 6 10.00 Fair CLR 69.6 61.9 77% 29.95 0.0
24 08:15 NW 5 10.00 Fair CLR 68.2 62.1 81% 29.95 0.0
24 07:55 N 8 10.00 Fair CLR 67.1 62.1 68.2 63.7 84% 29.94 0.0
24 07:35 N 3 10.00 Fair CLR 66.4 62.2 87% 29.93 0.0
24 07:15 NW 3 10.00 Fair CLR 65.7 61.9 88% 29.92 0.0
24 06:55 Calm 10.00 Fair CLR 64.4 61.7 91% 29.91 0.0
24 06:35 Calm 10.00 Fair CLR 63.9 61.3 92% 29.9 0.0
24 06:15 Calm 10.00 Fair CLR 63.7 61.2 92% 29.9 0.0
24 05:55 Calm 10.00 Fair CLR 63.7 61 91% 29.9 0.0
24 05:35 W 3 10.00 Partly Cloudy SCT120 64 61.2 90% 29.89 0.0
24 05:15 W 3 10.00 Mostly Cloudy BKN120 64.4 61 89% 29.88 0.0
24 04:55 W 3 10.00 Mostly Cloudy BKN120 64.6 61.2 89% 29.87 0.0
24 04:35 NW 3 10.00 Fair CLR 64.6 61 88% 29.86 0.0
24 04:15 W 3 10.00 Fair CLR 65.3 61 86% 29.85 0.0
24 03:55 Calm 10.00 Fair CLR 65.7 61 85% 29.84 0.0
24 03:35 W 5 10.00 Partly Cloudy SCT049 66.4 60.8 82% 29.85 0.0
24 03:15 Calm 10.00 Mostly Cloudy BKN047 66.6 60.8 82% 29.86 0.0
24 02:55 W 3 10.00 Mostly Cloudy SCT047 BKN095 66.7 60.4 80% 29.86 0.0
24 02:35 W 3 10.00 Partly Cloudy SCT047 SCT095 67.3 60.4 79% 29.86 0.0
24 02:15 NW 5 10.00 Partly Cloudy SCT050 SCT100 SCT120 67.8 60.1 76% 29.85 0.0
24 01:55 W 3 10.00 Mostly Cloudy BKN050 68.2 60.1 75.7 68.2 75% 29.85 0.0
24 01:35 Calm 10.00 Overcast OVC050 68.9 59.7 73% 29.84 0.0
24 01:15 W 3 10.00 Mostly Cloudy BKN050 69.3 59.4 71% 29.83 0.0
24 00:55 W 3 10.00 Mostly Cloudy BKN055 69.8 59.2 69% 29.82 0.0
24 00:35 NW 3 10.00 Overcast OVC055 70.2 59.2 68% 29.82 0.0
24 00:15 Calm 10.00 Mostly Cloudy BKN055 BKN110 70.3 59 67% 29.82 0.0
23 23:55 NW 3 10.00 Mostly Cloudy BKN055 71.1 59 66% 29.81 0.0
23 23:35 NW 3 10.00 Overcast OVC055 71.6 59.7 66% 29.8 0.0
23 23:15 NW 3 10.00 Mostly Cloudy BKN055 BKN110 71.6 59.4 65% 29.79 0.0
23 22:55 NW 5 10.00 Mostly Cloudy BKN055 71.8 59.2 65% 29.79 0.0
23 22:35 NW 7 10.00 Fair CLR 72.5 59.2 63% 29.78 0.0
23 22:15 NW 7 10.00 Partly Cloudy SCT050 SCT065 72.9 59.9 64% 29.77 0.0
23 21:55 N 5 10.00 Overcast BKN050 OVC065 73.8 60.6 64% 29.76 0.0
23 21:35 NW 6 10.00 Overcast SCT043 BKN050 OVC060 74.1 60.4 62% 29.76 0.0
23 20:35 NW 3 10.00 Overcast SCT039 SCT047 OVC070 75.4 61.3 62% 78 29.75 0.0
23 19:55 NW 6 10.00 Overcast OVC060 75.6 60.6 82.6 75.6 60% 78 29.74 0.0
23 19:35 NW 7 10.00 Overcast SCT041 BKN049 OVC060 76.1 60.8 59% 78 29.75 0.0
23 19:15 NW 9 G 21 10.00 Overcast SCT037 OVC045 76.1 60.6 59% 78 29.74 0.0
23 18:55 NW 10 G 21 10.00 Overcast BKN040 BKN060 OVC070 77 60.4 57% 79 29.73 0.0
23 18:35 NW 12 G 21 10.00 Overcast SCT048 OVC065 77.5 60.1 55% 79 29.73 0.0
23 18:15 NW 12 G 20 10.00 Mostly Cloudy BKN065 78.6 59.7 52% 80 29.72 0.0
23 17:55 NW 13 G 20 10.00 Mostly Cloudy BKN065 80.4 59.4 49% 81 29.72 0.0
23 17:35 W 12 G 20 10.00 Mostly Cloudy SCT041 SCT050 BKN065 80.1 59.9 50% 81 29.72 0.0
23 17:15 W 12 G 22 10.00 Overcast SCT042 BKN049 OVC060 81 59.9 49% 82 29.71 0.0
23 16:55 NW 8 G 20 10.00 Mostly Cloudy SCT040 SCT048 BKN060 82.2 61 49% 83 29.7 0.0
23 16:35 NW 8 G 20 10.00 Mostly Cloudy SCT040 SCT048 BKN060 81.3 60.1 49% 82 29.71 0.0
23 16:15 W 7 G 20 10.00 Mostly Cloudy SCT040 SCT045 BKN050 81.9 60.6 49% 82 29.7 0.0
23 15:55 W 12 G 22 10.00 Mostly Cloudy SCT044 BKN050 81.3 63.5 55% 83 29.7 0.0
23 15:35 W 14 G 23 10.00 Mostly Cloudy SCT035 SCT042 BKN048 81.1 63.9 56% 83 29.7 0.0
23 15:15 W 13 G 22 10.00 Overcast BKN034 OVC040 80.8 64.2 57% 82 29.7 0.0
23 14:55 W 13 G 18 10.00 Overcast SCT032 OVC039 80.6 65.3 60% 83 29.69 0.0
23 14:35 W 13 G 18 10.00 Mostly Cloudy BKN034 BKN039 81 64.2 57% 83 29.69 0.0
23 14:15 W 13 G 25 10.00 Partly Cloudy SCT032 SCT038 80.8 63.3 55% 82 29.69 0.0
23 13:55 W 13 G 20 10.00 Mostly Cloudy SCT030 BKN037 80.6 64.8 81.9 69.8 59% 82 29.68 0.0
23 13:35 W 12 G 18 10.00 Mostly Cloudy SCT030 BKN037 81.5 66.2 60% 84 29.68 0.0
23 13:15 W 13 G 17 10.00 Mostly Cloudy SCT029 BKN033 BKN044 81.1 67.1 62% 84 29.67 0.0
23 12:55 W 10 G 18 10.00 Mostly Cloudy SCT027 SCT032 BKN044 81.7 68 63% 85 29.66 0.0
23 12:35 W 12 G 18 10.00 Mostly Cloudy SCT020 SCT030 BKN038 80.8 68 65% 84 29.66 0.0
23 12:15 W 8 G 17 10.00 Mostly Cloudy BKN020 BKN028 BKN035 79 70 74% 82 29.66 0.0
23 11:55 W 10 G 21 10.00 Overcast SCT018 BKN023 OVC030 78.4 70.3 76% 81 29.66 0.0
23 11:35 SW 12 G 17 10.00 Overcast BKN016 OVC022 78.8 70.9 77% 82 29.66 0.0
23 11:15 W 9 G 18 10.00 Overcast BKN014 OVC020 76.6 70.9 82% 78 29.66 0.0
23 10:55 SW 8 G 17 10.00 Overcast OVC013 74.8 70.2 85% 29.66 0.0
23 10:35 SW 10 G 21 10.00 Overcast OVC013 74.1 69.4 85% 29.66 0.0
23 10:15 SW 10 10.00 Overcast OVC013 73.4 69.1 86% 29.67 0.0
23 09:55 SW 7 10.00 Overcast BKN015 OVC022 72.7 68.7 87% 29.67 0.0
23 09:35 SW 9 10.00 Overcast SCT022 OVC032 72 68 87% 29.68 0.0
23 09:15 SW 7 10.00 Overcast BKN032 OVC050 71.6 67.5 87% 29.67 0.0
23 08:55 S 10 G 16 10.00 Mostly Cloudy SCT034 BKN050 BKN110 71.8 68.2 88% 29.67 0.0
23 08:35 SW 6 10.00 Overcast OVC050 70.7 67.5 90% 29.67 0.0
23 08:15 SW 5 10.00 Overcast OVC060 70.2 67.1 90% 29.66 0.0
23 07:55 SW 8 10.00 Overcast SCT048 OVC060 70 67.3 83.3 69.4 91% 29.66 0.0
23 07:35 SW 8 10.00 Partly Cloudy SCT050 SCT120 69.8 67.1 91% 29.66 0.0
23 07:15 S 7 10.00 Fair CLR 69.8 67.1 91% 29.65 0.0
23 06:55 Calm 10.00 Light Rain SCT060 SCT070 SCT110 69.8 67.1 91% 29.64 0.0
23 06:35 SE 9 10.00 Light Rain BKN060 BKN070 OVC110 69.6 67.1 92% 29.61 0.0
23 06:15 S 9 10.00 Light Rain SCT048 BKN060 OVC110 69.4 67.3 93% 29.67 0.0
23 05:55 S 3 10.00 Light Rain SCT050 BKN070 OVC110 69.6 67.3 92% 29.69 0.0
23 05:35 SW 3 7.00 Light Rain SCT075 OVC095 69.8 66.9 91% 29.68 0.0
23 05:15 W 5 10.00 Light Rain SCT047 OVC065 70 67.1 91% 29.7 0.0
23 04:55 NW 6 5.00 Light Rain SCT023 SCT036 OVC046 70.2 66.9 90% 29.73 0.0
23 04:35 NW 16 G 29 10.00 Overcast SCT035 BKN060 OVC085 82 61.3 50% 83 29.71 0.0
23 04:15 SW 10 G 17 10.00 Overcast OVC085 82.8 61.5 49% 83 29.67 0.0
23 03:55 SW 10 10.00 Overcast OVC085 82.8 61.3 48% 83 29.68 0.0
23 03:35 SW 9 G 16 10.00 Overcast BKN085 OVC110 82.9 61.2 48% 83 29.69 0.0
23 03:15 SW 9 10.00 Mostly Cloudy BKN085 BKN110 83.3 61 47% 84 29.7 0.0
23 02:55 SW 10 G 17 10.00 Partly Cloudy SCT085 SCT110 83.3 61 47% 84 29.7 0.0
23 02:35 SW 12 G 16 10.00 Fair CLR 82.8 61 48% 83 29.71 0.0
23 02:15 SW 9 10.00 Fair CLR 82.6 61 48% 83 29.72 0.0
23 01:55 SW 10 10.00 Fair CLR 82.6 60.8 89.1 82.6 48% 83 29.73 0.0
23 01:35 S 9 10.00 Fair CLR 82.9 60.3 46% 83 29.73 0.0
23 01:15 S 9 G 16 10.00 Fair CLR 83.3 60.1 46% 83 29.73 0.0
23 00:55 S 9 10.00 Fair CLR 83.3 60.1 46% 83 29.74 0.0
23 00:35 SW 7 10.00 Fair CLR 83.8 59.9 44% 84 29.75 0.0
23 00:15 SW 8 10.00 Fair CLR 83.7 60.1 45% 84 29.76 0.0
22 23:55 SW 7 10.00 Partly Cloudy SCT120 83.7 60.1 45% 84 29.77 0.0
22 23:35 SW 6 10.00 Partly Cloudy SCT120 83.3 60.1 46% 83 29.78 0.0
22 23:15 SW 5 10.00 Fair CLR 83.7 59.5 44% 84 29.78 0.0
22 22:55 SW 5 10.00 Fair CLR 83.7 59.2 44% 84 29.79 0.0
22 22:35 SW 5 10.00 Fair CLR 84.2 58.8 42% 84 29.78 0.0
22 22:15 S 3 10.00 Fair CLR 84.4 58.1 41% 84 29.78 0.0
22 21:55 SW 5 10.00 Fair CLR 85.5 57.2 38% 85 29.79 0.0
22 21:35 SW 5 10.00 Fair CLR 86.2 57.2 37% 85 29.79 0.0
22 21:15 SW 6 10.00 Fair CLR 86.2 57.4 38% 85 29.79 0.0
22 20:55 SW 6 10.00 Fair CLR 87.1 57.2 36% 86 29.79 0.0
22 20:35 SW 6 10.00 Partly Cloudy SCT075 88 57.2 35% 87 29.79 0.0
22 20:15 SW 7 10.00 Partly Cloudy SCT075 88.9 56.3 33% 87 29.81 0.0
22 19:55 SW 7 G 20 10.00 Fair CLR 89.6 55.4 91.9 89.6 31% 88 29.82 0.0
22 19:35 SW 8 10.00 Partly Cloudy SCT080 90.1 55.9 31% 88 29.83 0.0
22 19:15 SW 8 G 18 10.00 Partly Cloudy SCT080 91.2 55.8 30% 89 29.83 0.0
22 18:55 SW 9 G 18 10.00 Partly Cloudy SCT080 91.4 55.6 30% 90 29.83 0.0
22 18:35 SW 12 G 17 10.00 Fair CLR 91.4 55.4 30% 90 29.83 0.0
22 18:15 SW 6 10.00 Fair CLR 91.4 56.7 31% 90 29.84 0.0
22 17:55 SW 9 G 16 10.00 Partly Cloudy SCT070 SCT080 91.6 56.8 31% 90 29.85 0.0
22 17:35 W 8 10.00 Mostly Cloudy SCT075 BKN080 90.7 58.8 34% 90 29.86 0.0
22 17:15 SW 8 10.00 Partly Cloudy SCT075 90.5 59.7 36% 90 29.87 0.0
22 16:55 SW 3 10.00 Fair CLR 90 60.1 37% 90 29.88 0.0
22 16:35 SW 7 10.00 Partly Cloudy SCT070 89.6 59 36% 89 29.89 0.0
22 16:15 SW 8 G 17 10.00 Partly Cloudy SCT080 90 57.9 34% 89 29.9 0.0
22 15:55 SW 10 G 16 10.00 Partly Cloudy SCT070 SCT080 90.5 57.7 33% 89 29.9 0.0
22 15:35 SW 15 G 23 10.00 Fair CLR 91.4 59.7 35% 91 29.91 0.0
22 15:15 SW 12 G 20 10.00 Fair CLR 91.8 59.7 34% 91 29.91 0.0
22 14:55 SW 8 G 20 10.00 Fair CLR 91 59 34% 90 29.92 0.0
22 14:35 SW 7 G 20 10.00 Partly Cloudy SCT065 91.6 59.2 34% 91 29.93 0.0
22 14:15 W 10 G 20 10.00 Partly Cloudy SCT060 91.9 59 33% 91 29.93 0.0
22 13:55 SW 14 G 23 10.00 Partly Cloudy SCT060 SCT080 91.9 58.6 92.3 79.2 33% 91 29.94 0.0
22 13:35 SW 10 G 22 10.00 Mostly Cloudy SCT060 BKN080 91.9 59.5 34% 91 29.95 0.0
22 13:15 SW 7 G 18 10.00 Partly Cloudy SCT060 SCT080 91.6 60.1 35% 91 29.95 0.0
22 12:55 SW 9 10.00 Partly Cloudy SCT070 SCT090 91.4 61.5 37% 92 29.96 0.0
22 12:35 S 12 10.00 Partly Cloudy SCT050 SCT060 SCT075 90.5 63.1 40% 92 29.97 0.0
22 12:15 S 9 10.00 Partly Cloudy SCT050 SCT060 SCT075 89.6 63.7 42% 91 29.98 0.0
22 11:55 SW 7 10.00 Partly Cloudy SCT050 SCT075 89.4 63.3 42% 90 29.98 0.0
22 11:35 SW 7 10.00 Fair CLR 88.3 65.7 47% 91 29.99 0.0
22 11:15 SW 10 10.00 Fair CLR 87.8 64.4 46% 89 30 0.0
22 10:55 SW 9 10.00 Fair CLR 87.8 64.8 46% 90 30.01 0.0
22 10:35 SW 9 10.00 Fair CLR 86.9 66.4 51% 89 30.01 0.0
22 10:15 SW 5 10.00 Fair CLR 85.5 67.3 55% 88 30.02 0.0
22 09:55 W 3 10.00 Fair CLR 84.4 67.3 57% 87 30.03 0.0
22 09:35 W 5 10.00 Fair CLR 83.1 66.9 58% 86 30.03 0.0
22 09:15 SW 7 10.00 Fair CLR 82.6 66.6 59% 85 30.03 0.0
22 08:55 W 6 10.00 Fair CLR 82.6 66.9 59% 85 30.03 0.0
22 08:35 W 5 10.00 Fair CLR 80.8 67.1 63% 83 30.04 0.0
22 08:15 SW 5 10.00 Fair CLR 80.6 68.7 67% 84 30.04 0.0
22 07:55 Calm 10.00 Fair CLR 78.4 70.3 78.4 71.6 76% 81 30.04 0.0
22 07:35 Calm 10.00 Fair CLR 76.6 72.5 87% 78 30.05 0.0
22 07:15 Calm 4.00 Fog/Mist CLR 73.4 71.4 94% 30.05 0.0
22 06:55 Calm 1.25 Fog/Mist VV007 71.6 69.8 94% 30.05 0.0
22 06:35 Calm 0.75 Fog/Mist VV005 71.6 69.8 94% 30.06 0.0
Date Time (edt) Wind (mph) Vis. (mi.) Weather Sky Cond. Air Dwpt Max. Min. Relative Humidity Wind Chill (°F) Heat Index (°F) altimeter (in) sea level (mb) 1 hr 3 hr 6 hr
6 hour
Temperature (ºF) Pressure Precipitation (in)